Temp
21 22 21 21 23 23 26 27 28 27 27 27 28 26 25 23 25 23 21 21 22 21 21 22 21 21 21 21 21 21 22 21 21 21 22 22 22 22 22 22 22 21 21 21 21 21 21 21 22
21 21 21 22 24 24 25 27 26 27 26 27 26 26 24 23 22 21 20 21 21 21 21 21 21 21 21 21 21 22 21 21 22 23 23 23 23 23 22 21 21 21 21 21 21 21 22 22 22
22 22 22 23 24 25 25 27 26 27 28 27 25 26 24 22 22 21 20 21 21 21 21 21 21 21 21 21 21 21 21 21 22 22 23 22 22 22 21 21 21 21 21 21 21 21 22 22 22
22 22 22 25 27 29 27 26 27 27 27 27 26 24 24 24 23 21 21 21 21 21 21 21 21 21 21 21 21 21 21 22 22 21 21 21 21 21 21 21 22 22 21 21 21 22 22 22 22
23 22 24 26 29 29 29 28 28 27 26 26 26 24 23 23 22 21 21 21 21 21 21 21 21 21 20 21 21 21 21 21 22 21 21 21 21 21 21 22 21 22 21 22 23 23 23 23 23
22 22 25 27 29 28 28 28 28 26 26 25 24 23 22 22 21 21 21 21 21 21 21 21 21 21 21 21 21 21 21 21 21 21 21 21 22 22 22 22 21 21 22 23 23 23 23 23 23
23 23 24 24 28 27 28 28 27 26 26 26 26 22 21 22 21 21 20 21 21 21 21 21 21 21 21 21 21 21 21 21 21 21 21 22 22 22 22 22 22 22 22 23 23 23 23 23 22
22 23 24 25 25 28 28 29 28 27 26 27 26 22 22 22 21 21 20 20 21 21 21 21 21 21 21 21 21 21 21 22 21 21 21 21 22 22 22 22 23 23 23 23 23 23 23 23 23
23 23 23 25 25 25 29 28 29 28 27 28 27 24 24 21 21 20 20 20 20 21 21 21 21 21 21 21 21 21 21 21 21 21 21 21 21 21 21 22 23 23 23 24 24 24 24 24 23
23 23 24 26 25 26 26 29 27 27 27 26 25 25 23 22 21 20 20 20 20 20 21 21 21 21 21 21 21 21 21 21 21 21 21 21 21 22 22 23 23 24 24 24 24 24 24 24 24
24 24 26 26 25 25 26 28 29 27 26 26 24 23 23 22 22 21 20 20 20 21 21 21 21 21 21 21 21 21 21 21 21 21 22 22 22 22 23 23 24 24 24 24 24 24 24 24 24
25 26 25 25 26 26 26 27 28 27 27 26 25 24 24 23 22 22 21 21 21 20 21 21 21 21 21 22 21 21 21 22 22 22 22 22 22 22 23 24 24 25 25 25 25 25 25 25 25
26 26 24 24 25 25 26 26 28 26 28 26 25 25 24 24 23 23 22 22 21 21 21 22 22 22 21 22 22 22 22 22 22 22 22 22 23 23 23 24 25 25 25 25 25 26 26 26 26
28 26 25 24 24 24 26 28 28 27 28 26 25 25 25 25 24 23 23 22 22 22 22 22 23 23 22 22 22 22 22 22 22 22 23 23 23 23 24 25 25 25 25 25 26 26 26 26 26
28 26 25 25 23 26 29 27 26 28 28 27 26 26 26 25 25 24 24 23 23 23 23 22 23 23 23 23 23 22 22 22 22 23 23 23 23 24 25 25 25 25 25 26 26 26 26 27 27
30 28 27 24 23 26 26 26 27 27 28 27 27 26 26 25 25 26 25 24 24 24 24 24 23 23 23 23 23 23 23 22 22 23 23 24 24 24 24 25 26 25 25 26 26 26 27 27 27
28 27 26 26 26 27 26 27 27 27 28 27 27 27 27 25 25 26 25 25 25 25 24 24 24 23 23 24 24 24 23 23 23 23 23 24 24 24 24 25 26 26 26 26 26 26 26 27 28
28 27 29 27 28 26 27 26 27 28 27 27 27 27 27 26 25 25 25 25 25 25 25 25 24 25 24 24 24 24 24 23 23 23 24 24 24 24 24 24 26 26 26 26 26 26 27 27 27
29 28 27 29 31 28 27 27 27 28 27 27 27 27 27 26 27 26 25 25 24 24 24 24 24 24 24 24 23 23 24 24 23 24 24 24 24 24 24 25 25 26 26 26 26 27 27 27 27
29 28 27 28 30 28 29 27 28 28 28 27 27 27 27 26 24 25 25 24 24 24 25 24 25 25 25 25 24 24 24 24 24 24 24 25 25 25 25 25 26 26 26 26 26 26 26 27 27
27 28 28 28 29 28 30 29 27 28 28 28 28 28 27 27 25 25 25 24 24 24 24 25 25 25 24 25 24 24 24 24 24 24 24 25 25 25 25 26 26 27 26 26 26 26 26 27 27
26 29 29 28 27 26 30 26 27 27 27 28 28 28 26 27 27 26 25 24 24 24 25 25 25 25 25 25 24 24 24 24 24 25 25 25 25 26 26 25 26 26 26 26 26 26 26 26 27
26 28 28 28 26 27 28 26 26 26 26 27 28 28 27 27 27 26 26 25 24 24 24 25 26 26 26 26 25 25 25 25 26 25 25 26 25 26 26 26 26 26 26 26 26 26 26 26 26
28 27 26 26 23 23 26 27 28 26 27 28 28 29 29 28 28 27 27 26 25 25 24 24 25 26 26 26 26 25 25 25 25 25 25 25 26 26 25 26 26 26 26 26 27 26 26 26 26
23 22 21 24 23 23 25 25 30 29 30 30 29 29 29 29 28 27 26 25 25 25 24 24 25 25 26 26 26 25 25 25 26 26 25 25 25 25 25 26 26 26 26 26 26 26 26 26 26
23 23 21 24 22 23 27 25 27 29 32 31 31 30 30 30 28 28 26 26 25 25 24 24 24 24 25 25 26 26 26 25 25 26 26 26 26 26 26 26 26 26 26 26 26 26 26 26 26
25 23 24 22 22 21 23 25 27 29 29 29 30 30 30 30 29 28 28 26 26 25 25 24 24 24 25 25 25 25 25 25 25 26 26 26 26 26 26 26 26 26 26 26 25 25 25 25 25
24 24 22 19 24 23 23 25 26 28 30 29 29 30 29 30 30 29 28 27 26 26 25 25 24 24 24 25 26 26 26 26 26 26 26 26 27 26 26 26 26 26 26 26 25 25 25 25 25
20 20 21 19 19 21 21 22 25 27 29 29 29 30 30 30 30 29 29 28 27 26 26 25 24 24 24 24 25 25 26 26 25 25 26 27 26 26 26 26 26 26 26 26 25 25 25 25 24
21 23 20 18 20 19 19 21 29 25 25 26 28 29 30 30 30 29 29 28 27 26 26 25 24 24 24 24 24 24 25 25 25 25 26 27 26 26 26 27 26 26 26 26 26 25 25 25 25
Height
771 773 774 776 790 793 796 789 770 777 777 768 770 778 787 789 793 814 797 801 805 809 812 814 816 817 818 818 819 819 819 820 820 820 821 822 822 822 824 826 827 828 829 829 829 830 831 830 830
770 772 774 775 797 809 802 782 784 774 771 768 773 780 787 797 791 796 800 804 807 809 812 815 817 818 820 820 820 821 822 823 823 824 825 826 826 826 827 828 830 830 831 833 833 833 834 833 834
771 773 778 783 792 804 802 781 781 774 767 769 782 779 786 798 795 798 800 804 809 811 814 816 818 820 821 822 822 823 824 824 825 826 828 829 828 829 830 832 833 833 834 836 836 836 837 838 837
770 773 776 789 789 774 778 781 775 774 772 771 778 792 790 793 796 797 802 806 810 813 815 818 820 821 823 824 825 826 827 826 827 828 830 831 832 832 833 834 835 836 836 837 838 839 840 840 840
771 773 788 788 780 771 769 770 772 776 777 778 778 796 797 796 797 801 804 808 810 814 817 820 821 822 824 825 827 827 828 829 829 831 833 833 834 835 836 837 838 838 840 840 841 842 843 842 843
777 777 794 797 781 776 772 769 772 776 778 782 789 794 802 799 800 804 807 809 812 815 818 820 822 823 825 826 829 829 831 832 833 833 834 835 836 836 837 838 840 841 841 842 843 844 846 846 846
780 789 804 802 787 786 777 769 775 780 780 786 783 801 803 803 804 806 808 811 814 816 818 821 823 825 827 829 831 832 832 833 835 836 836 836 837 838 839 840 842 843 844 844 845 847 848 848 849
780 790 800 798 797 791 775 773 773 775 783 778 781 804 806 802 806 808 811 813 815 817 819 822 824 826 828 831 832 833 834 834 835 837 838 839 839 840 841 842 843 844 846 847 848 850 851 852 851
780 800 811 801 798 795 776 782 774 771 778 779 780 788 793 801 806 810 812 814 817 818 821 823 826 828 829 831 833 835 836 836 837 838 839 840 841 842 843 844 845 846 848 849 851 853 853 854 853
792 805 801 786 787 789 786 780 778 783 786 787 787 791 797 801 805 808 811 814 816 818 821 824 826 829 830 832 835 836 837 838 838 839 840 842 843 843 844 845 847 848 850 852 853 854 855 855 854
786 799 783 782 784 786 790 784 777 784 796 787 789 793 798 802 807 809 811 811 812 817 820 823 826 828 830 832 834 837 838 839 839 840 842 844 845 845 846 847 848 850 852 853 855 856 856 855 855
788 782 781 784 782 783 788 783 783 780 779 780 785 790 797 803 806 809 811 814 816 817 819 822 825 827 829 831 834 835 837 839 840 841 843 844 846 847 848 849 851 852 853 853 854 855 856 855 853
781 781 781 779 781 784 782 784 782 786 777 782 788 794 797 801 804 806 808 812 815 818 819 820 823 826 829 831 833 835 837 839 840 842 843 844 846 848 849 851 852 853 854 854 854 854 854 854 854
767 778 784 783 787 788 788 777 778 781 779 786 788 795 797 799 802 807 810 812 815 817 818 821 822 825 828 831 833 835 837 839 840 842 843 844 846 848 850 852 853 854 855 856 856 856 855 855 854
769 787 789 795 793 789 778 793 789 775 779 785 789 792 795 797 800 802 805 809 812 815 818 820 822 824 827 830 833 835 836 838 839 841 844 845 847 848 850 852 853 855 856 856 856 856 856 855 854
775 783 803 803 796 785 792 804 785 777 780 787 789 790 792 796 797 800 803 806 809 814 816 820 823 824 826 829 832 834 836 837 839 841 843 845 847 850 851 853 853 855 856 856 857 856 855 854 854
785 806 808 800 781 783 790 793 781 778 781 787 787 788 790 794 795 797 799 803 806 810 814 818 821 824 826 828 830 833 835 837 839 841 843 845 848 850 852 853 853 855 856 856 856 856 855 854 853
804 805 792 796 779 784 785 784 779 778 782 784 785 785 788 791 791 793 797 800 805 808 811 815 820 823 826 828 830 833 835 837 839 841 843 845 847 850 852 853 853 854 855 856 856 856 855 855 853
784 793 798 778 761 778 781 781 779 776 783 786 785 784 784 787 788 791 795 798 803 807 810 814 818 821 824 827 829 832 834 836 839 841 843 845 847 849 851 852 853 854 855 856 855 855 855 855 853
786 796 798 779 763 771 769 779 770 770 771 774 777 781 781 782 787 790 793 797 799 803 807 811 815 818 822 824 827 830 832 835 837 840 842 844 847 849 850 851 853 854 854 855 855 856 856 855 854
794 794 790 793 772 765 766 781 777 769 767 770 773 771 775 776 780 786 789 792 795 799 803 807 810 815 819 822 826 829 831 834 836 838 840 842 845 847 849 850 851 852 853 853 854 855 856 855 854
805 779 782 786 793 807 767 812 781 771 772 769 768 768 769 770 772 778 783 787 791 793 798 802 806 810 815 819 822 826 828 831 833 835 838 840 843 846 847 848 850 851 851 853 853 854 855 855 854
795 777 784 782 793 791 784 804 783 767 777 771 761 759 759 761 764 769 774 779 784 790 793 798 802 806 810 815 819 823 825 828 830 833 836 838 841 843 845 847 848 849 850 851 852 853 854 854 854
773 780 783 785 800 823 792 794 776 776 762 752 748 746 745 751 757 762 767 774 780 785 789 793 797 801 805 809 814 819 822 825 827 829 832 835 838 841 843 845 846 847 849 851 851 852 853 853 853
792 806 837 827 826 823 790 797 764 744 733 729 731 732 733 739 748 756 763 769 774 779 784 789 792 796 801 805 809 814 818 822 824 826 829 832 835 837 839 841 843 845 847 849 850 850 851 851 851
803 806 837 835 840 822 783 802 771 731 715 713 714 716 721 730 738 745 752 758 765 770 777 782 787 791 796 800 805 809 814 818 820 823 826 829 831 833 835 838 840 842 844 845 846 846 847 848 848
797 812 797 816 814 826 803 776 747 728 721 716 712 713 717 721 727 734 741 749 757 763 769 774 780 786 790 795 800 805 810 813 816 820 823 826 828 829 832 835 837 839 840 842 843 844 844 845 845
795 791 819 827 822 825 808 787 777 748 731 718 713 709 707 709 717 725 733 741 749 755 761 768 774 779 784 789 794 800 805 809 812 816 819 821 823 825 829 831 833 834 836 839 840 841 842 843 843
810 816 811 819 829 830 826 800 750 741 728 717 702 696 699 704 708 714 723 731 739 748 756 762 768 774 780 784 788 793 798 804 809 812 815 817 818 820 825 827 829 830 832 835 837 838 839 839 840
803 805 816 834 831 824 823 797 733 735 725 717 704 695 697 698 705 715 724 730 735 743 750 756 761 767 772 777 783 788 793 799 804 808 811 813 815 818 821 824 826 826 828 830 832 833 834 835 835
Wind_Speed
10 8 6 2 1 3 3 3 2 4 3 1 8 6 9 8 0 3 19 13 26 23 20 20 19 18 18 18 19 20 20 19 20 20 25 24 21 19 16 17 17 16 14 17 17 16 15 16 16
13 8 1 1 3 3 2 3 3 1 6 13 9 5 8 5 5 13 13 26 27 25 22 20 20 19 19 18 18 20 20 18 19 21 24 20 18 17 16 16 15 15 16 16 16 15 15 14 12
8 4 0 1 2 3 4 3 8 10 4 6 5 5 4 4 11 12 18 29 26 25 23 20 20 18 18 18 19 19 19 19 18 18 17 16 15 15 14 14 13 13 15 15 14 14 15 13 12
5 1 2 2 2 2 6 8 13 7 9 8 9 7 4 11 6 13 30 28 27 24 22 20 19 17 17 17 19 19 19 19 18 17 16 15 15 14 14 12 11 12 14 13 12 13 12 11 11
4 1 3 2 2 5 8 11 10 6 4 10 4 5 4 4 18 31 30 28 28 25 21 20 18 18 17 19 18 18 19 19 17 15 15 15 15 13 13 12 11 10 9 10 11 13 10 7 7
3 0 4 3 2 4 7 10 8 12 14 14 11 7 3 21 26 24 28 28 27 26 21 19 18 19 18 18 19 19 18 18 16 16 15 15 14 12 12 11 11 10 10 12 13 13 11 8 6
4 3 3 8 7 3 6 7 9 14 14 9 9 4 5 12 21 22 24 27 26 24 21 20 17 18 18 18 18 18 18 17 17 16 16 15 14 13 11 11 10 11 11 13 14 13 11 8 7
3 2 5 2 5 4 7 3 9 11 6 12 12 6 9 12 21 23 24 25 26 24 21 20 20 21 19 18 18 18 18 18 16 15 15 14 13 12 11 10 11 11 11 12 12 12 9 7 6
2 3 3 2 1 2 4 2 9 5 12 3 3 7 13 23 24 23 23 22 24 23 22 21 21 21 20 18 17 18 17 17 16 15 14 13 13 12 11 11 10 10 10 11 11 10 8 6 5
3 2 6 5 1 2 10 9 7 7 12 10 12 16 24 26 24 22 18 19 21 24 24 23 22 22 20 19 17 18 17 17 17 16 15 14 12 12 11 10 9 9 9 10 10 9 7 5 3
3 2 3 5 7 6 5 5 2 16 5 15 21 20 20 22 19 19 21 25 28 28 26 24 24 24 23 22 20 19 18 19 18 17 15 14 12 10 11 10 10 10 10 8 6 4 3 5 6
3 4 1 4 4 3 5 8 8 9 6 15 20 23 22 17 17 18 18 18 20 25 27 25 23 24 22 21 21 20 19 18 18 17 16 15 12 11 11 11 10 9 6 4 1 2 4 7 7
4 6 3 4 5 6 10 14 7 8 15 18 20 20 20 17 20 22 25 24 24 24 27 28 25 23 20 21 21 20 19 18 19 18 16 15 14 13 12 13 10 7 4 1 3 5 8 8 10
7 10 6 9 9 17 12 3 7 9 17 19 21 20 18 18 22 18 19 20 27 26 28 28 27 24 21 21 21 20 18 18 19 17 17 15 14 13 13 13 11 7 3 2 3 6 6 9 11
14 9 9 8 6 7 6 4 6 18 18 21 19 18 16 16 21 24 27 26 30 31 29 29 27 25 23 21 20 17 16 19 20 20 18 15 16 14 15 14 11 7 4 4 5 5 7 9 8
3 5 4 6 5 7 3 5 6 16 19 17 18 18 16 14 23 25 27 32 33 30 32 29 28 26 24 22 21 19 19 19 20 21 20 16 15 13 13 12 11 6 5 4 5 8 9 11 9
4 3 6 5 15 4 9 2 10 14 17 16 16 15 16 12 15 23 30 31 35 34 34 32 29 27 26 20 21 19 18 18 20 20 20 19 17 14 13 11 11 8 6 7 9 8 12 9 6
4 4 2 6 4 12 8 7 15 16 17 18 16 15 12 13 14 23 29 32 35 37 35 34 33 27 23 21 20 19 17 16 18 19 21 21 17 16 14 11 12 9 9 10 8 12 7 6 8
5 3 7 9 9 8 17 5 15 19 14 16 16 14 13 13 16 24 29 32 31 34 35 36 35 29 28 23 20 19 20 19 18 20 21 20 20 17 12 9 10 11 11 7 8 6 6 5 10
5 7 6 9 9 7 5 14 14 21 22 20 20 15 15 12 10 19 26 29 32 37 37 37 34 31 30 27 22 19 23 23 21 19 20 20 22 17 14 11 14 11 11 10 9 8 9 4 7
4 6 5 7 10 9 1 3 13 17 13 17 16 17 12 17 16 16 24 29 31 33 39 38 36 34 30 28 23 17 20 21 23 22 23 24 24 20 16 15 14 14 14 13 11 9 8 5 4
4 1 7 7 7 4 5 6 5 13 16 20 18 17 15 17 18 19 24 29 32 35 42 40 36 35 31 30 26 23 21 18 26 25 24 27 26 22 18 15 14 14 16 12 11 10 8 4 3
8 3 5 6 6 2 5 0 7 12 11 16 21 20 18 19 20 22 25 34 37 35 38 41 38 35 34 33 29 25 20 24 24 28 26 28 28 25 20 18 15 16 15 12 11 9 8 6 3
9 5 3 1 3 1 7 6 6 6 11 21 22 24 23 20 21 22 34 35 34 34 36 39 40 39 35 34 31 28 24 23 23 29 29 27 29 27 23 21 17 16 16 14 12 11 9 9 8
10 6 5 5 3 6 2 3 14 7 12 18 23 26 25 21 21 21 21 26 30 32 34 34 40 40 40 35 34 31 26 27 26 26 31 27 27 27 26 24 21 21 18 16 15 14 13 11 11
5 5 5 4 3 6 9 6 6 10 17 12 17 23 25 22 21 23 22 31 34 36 36 35 36 37 40 38 35 33 29 27 28 29 31 29 29 30 28 28 25 22 21 22 21 19 18 16 16
5 1 5 4 3 1 5 9 9 11 12 9 15 18 24 24 23 26 24 34 35 37 37 38 37 37 41 42 38 36 32 27 30 31 31 31 31 32 31 29 27 26 23 20 19 19 19 17 16
4 3 5 4 3 5 5 6 6 10 16 10 11 17 23 23 24 23 22 32 35 38 40 39 38 39 40 43 42 38 37 32 27 29 29 30 32 36 31 30 29 29 28 25 21 20 19 17 16
6 4 3 3 3 3 5 5 7 9 16 15 10 16 20 21 22 22 22 34 38 38 37 38 36 37 35 40 43 40 41 36 27 28 29 28 30 36 33 31 31 33 29 26 24 22 20 20 17
5 2 3 4 7 3 4 6 11 7 9 8 7 9 10 14 16 14 14 24 31 34 35 36 36 36 38 39 39 38 40 40 32 31 28 25 26 30 32 30 32 34 33 28 28 25 24 23 22
Wind_Direction
156 148 127 187 56 64 36 33 31 112 107 52 123 117 111 39 54 170 148 148 151 147 152 146 138 131 131 135 136 133 129 125 121 118 118 122 121 120 113 112 109 111 112 105 101 99 95 94 94
154 156 124 265 74 56 31 4 132 153 116 95 74 81 48 72 60 118 120 152 151 148 147 141 138 133 133 134 140 139 138 134 131 123 123 124 121 122 115 105 111 109 108 107 107 103 97 92 100
155 200 50 129 111 143 141 113 129 112 109 81 108 72 80 82 113 132 149 151 152 148 146 140 143 137 134 135 139 146 143 143 143 139 134 129 130 117 114 117 115 116 111 111 108 107 103 100 104
188 197 235 63 24 71 132 164 141 113 74 78 115 71 72 121 133 146 149 153 150 148 147 147 143 141 139 142 141 147 145 144 145 137 132 129 126 127 126 130 128 123 115 113 113 116 110 105 113
29 28 27 30 21 98 127 148 141 123 86 91 58 101 62 57 136 143 153 156 151 148 148 149 151 145 145 144 145 145 145 144 147 137 135 136 136 139 132 131 129 123 121 123 130 124 119 108 120
50 209 35 5 77 74 117 142 126 95 98 99 104 104 59 131 133 147 154 158 156 152 154 150 153 151 148 146 145 146 143 143 145 144 141 141 140 140 136 134 128 124 112 116 126 134 122 104 123
97 35 7 305 106 85 138 141 130 126 121 118 136 84 120 140 144 149 156 161 160 155 153 151 153 149 150 149 147 146 144 145 145 146 147 150 149 145 145 136 130 122 117 117 127 137 132 123 125
76 78 3 288 4 118 142 124 144 126 86 117 145 150 155 163 150 150 152 156 158 157 157 154 153 154 153 155 153 150 148 148 152 151 147 152 150 151 151 142 131 124 122 124 136 146 147 141 135
21 85 287 277 299 330 182 143 170 74 131 135 203 126 140 145 141 139 144 154 158 161 160 158 158 159 160 159 158 154 151 151 148 149 150 153 160 162 158 149 141 135 133 134 145 155 150 151 154
139 150 204 236 194 28 340 196 128 133 158 107 100 111 136 143 148 148 157 163 167 167 164 164 165 162 165 160 164 156 155 158 159 160 162 165 166 164 160 156 152 145 139 146 154 157 163 180 185
139 203 234 291 257 316 328 161 124 144 185 155 146 147 155 153 160 163 171 176 177 170 166 170 171 172 170 169 166 165 170 169 169 165 162 159 158 161 172 170 165 157 157 160 164 175 223 262 269
127 120 180 34 61 298 270 271 174 196 175 152 149 154 156 165 171 178 173 178 180 176 172 174 174 176 175 172 171 173 178 178 174 170 169 169 172 172 178 178 171 165 166 175 229 323 326 332 325
134 175 234 50 11 289 264 259 188 208 140 142 146 155 166 175 183 184 178 180 180 180 179 176 175 179 182 179 175 178 178 181 176 179 187 185 180 178 180 181 180 181 182 257 339 356 350 5 354
141 155 97 56 340 308 293 168 135 161 147 151 156 171 177 181 183 179 179 184 183 184 189 182 181 180 182 183 179 182 189 189 189 195 194 189 183 180 187 190 192 198 206 298 316 327 333 338 336
137 130 118 101 257 275 158 224 184 161 163 159 170 174 184 188 183 182 185 188 186 185 187 187 187 185 187 188 186 186 188 192 193 189 192 194 191 186 188 195 203 207 241 289 291 297 317 323 342
162 102 138 180 225 272 303 237 162 169 168 174 174 181 188 191 191 188 187 189 191 188 190 192 195 194 194 192 194 196 190 193 192 190 194 197 190 193 196 205 212 226 268 277 288 307 316 317 302
22 85 99 229 204 180 197 216 172 179 178 182 187 186 189 192 195 183 184 185 190 196 192 193 198 199 193 191 193 195 197 190 191 192 191 193 196 209 217 227 218 234 251 262 293 297 313 319 330
358 336 272 226 197 208 198 219 170 186 186 189 194 196 193 193 195 182 179 183 188 189 189 191 194 191 188 185 188 187 198 198 196 189 193 199 206 216 220 245 227 231 245 271 275 307 312 312 332
278 267 279 277 250 175 212 202 184 184 197 200 202 202 199 191 192 181 180 182 181 182 182 186 188 191 183 183 183 190 198 200 202 204 197 202 206 212 221 235 227 237 249 252 296 295 304 319 344
299 263 272 279 290 176 205 220 195 184 201 200 198 199 203 186 171 182 180 179 180 183 189 189 191 189 191 189 193 196 200 202 202 202 206 206 204 210 219 236 237 246 246 258 276 273 290 320 355
326 297 315 286 307 211 121 253 175 207 205 201 212 207 196 192 181 182 181 184 184 185 190 194 195 195 198 195 195 201 200 208 208 210 211 206 208 212 218 228 237 240 246 257 251 263 281 291 343
316 357 321 328 350 288 184 257 220 191 204 200 207 210 198 196 189 184 183 187 189 192 194 195 193 193 196 198 198 199 199 199 214 214 211 208 209 215 221 230 230 237 247 251 244 260 265 268 338
241 230 278 279 260 260 278 235 264 164 205 209 212 213 203 198 192 190 188 189 192 192 195 198 196 196 198 201 205 206 211 211 217 216 217 213 213 216 222 225 237 238 230 239 245 248 237 244 255
269 329 331 340 118 232 232 189 246 183 202 211 215 212 204 197 196 193 193 192 192 191 193 197 200 202 202 203 204 208 212 214 213 213 214 216 217 220 225 220 223 219 223 237 249 237 245 250 260
31 50 351 334 359 226 326 303 241 244 227 217 211 210 207 195 192 193 191 191 193 191 193 194 198 203 205 205 206 208 212 217 216 216 213 218 216 222 224 217 219 221 228 238 240 244 246 254 263
293 145 149 259 240 281 316 243 253 237 251 227 220 208 203 195 194 194 190 191 192 192 192 194 198 201 205 207 208 210 213 217 222 220 220 222 222 225 224 222 222 228 237 241 243 241 244 254 265
302 40 206 206 253 5 227 277 292 245 255 239 222 204 205 199 193 195 191 192 192 192 193 194 197 202 204 208 211 211 212 219 223 224 226 226 232 233 233 229 230 237 238 242 246 244 246 257 267
71 258 5 3 273 269 277 257 243 309 299 275 244 209 208 199 195 195 193 193 194 192 194 195 198 199 204 208 213 216 217 222 226 226 226 227 235 235 237 237 238 234 236 241 243 244 250 258 265
341 1 11 139 150 242 309 260 225 271 277 263 244 207 205 198 197 192 194 192 192 193 193 196 196 200 203 208 212 214 217 219 223 221 223 232 235 233 235 241 244 238 239 238 239 245 250 253 259
165 157 105 107 291 256 214 266 260 302 294 338 261 188 193 196 196 197 202 191 188 192 193 195 198 199 204 207 210 212 214 218 219 221 223 232 237 237 238 239 248 254 243 235 235 245 250 250 253